Location: Karcze
(52.0945°N, 22.4786°E)
Time: 11:28:05
(UTC+00:00)

IRAS Rocket - Pass Details

Date: 14 July 2020
Orbit: 848 x 877 km, 100.1° (Epoch: 07 August)

Event Time Altitude Azimuth Distance (km) Brightness Sun altitude
Exits shadow 00:11:56 17° 185° (S) 2,002 5.6 -13.3°
Maximum altitude 00:16:01 54° 257° (WSW) 1,030 4.4 -13.1°
Drops below altitude 10° 00:21:26 10° 335° (NNW) 2,495 7.2 -12.8°
Sets 00:23:53 0° 340° (NNW) 3,439 8.1 -12.6°
